TimeCDT,TemperatureF,Dew PointF,Humidity,Sea Level PressureIn,VisibilityMPH,Wind Direction,Wind SpeedMPH,Gust SpeedMPH,PrecipitationIn,Events,Conditions,WindDirDegrees,DateUTC
12:12 AM,64.4,60.8,88,29.99,10.0,Calm,Calm,-,N/A,,Mostly Cloudy,0,2012-03-30 05:12:00
12:41 AM,66.2,62.6,88,29.98,10.0,Calm,Calm,-,N/A,,Overcast,0,2012-03-30 05:41:00
12:55 AM,65.5,62.2,89,29.98,10.0,Calm,Calm,-,N/A,,Mostly Cloudy,0,2012-03-30 05:55:00
12:57 AM,66.2,62.6,88,29.98,10.0,Calm,Calm,-,N/A,,Mostly Cloudy,0,2012-03-30 05:57:00
1:00 AM,66.2,62.6,88,29.98,10.0,Calm,Calm,-,N/A,,Mostly Cloudy,0,2012-03-30 06:00:00
1:06 AM,66.2,62.6,88,29.98,10.0,Calm,Calm,-,N/A,,Mostly Cloudy,0,2012-03-30 06:06:00
1:20 AM,66.2,62.6,88,29.98,10.0,Calm,Calm,-,N/A,,Overcast,0,2012-03-30 06:20:00
1:31 AM,66.2,62.6,88,29.98,10.0,Calm,Calm,-,N/A,,Overcast,0,2012-03-30 06:31:00
1:35 AM,66.2,62.6,88,29.97,10.0,South,3.5,-,N/A,,Overcast,170,2012-03-30 06:35:00
1:54 AM,66.2,62.6,88,29.97,10.0,Calm,Calm,-,N/A,,Overcast,0,2012-03-30 06:54:00
1:55 AM,65.3,63.1,93,29.97,10.0,Calm,Calm,-,N/A,,Overcast,0,2012-03-30 06:55:00
2:16 AM,66.2,64.4,94,29.97,10.0,Calm,Calm,-,N/A,,Overcast,0,2012-03-30 07:16:00
2:41 AM,66.2,64.4,94,29.96,10.0,Calm,Calm,-,N/A,,Overcast,0,2012-03-30 07:41:00
2:47 AM,66.2,64.4,94,29.96,10.0,Calm,Calm,-,N/A,,Overcast,0,2012-03-30 07:47:00
2:55 AM,66.2,64.2,93,29.95,10.0,Calm,Calm,-,N/A,,Overcast,0,2012-03-30 07:55:00
3:17 AM,66.2,64.4,94,29.95,10.0,Calm,Calm,-,N/A,,Mostly Cloudy,0,2012-03-30 08:17:00
3:39 AM,66.2,64.4,94,29.95,10.0,Calm,Calm,-,N/A,,Overcast,0,2012-03-30 08:39:00
3:42 AM,66.2,64.4,94,29.95,10.0,Calm,Calm,-,N/A,,Overcast,0,2012-03-30 08:42:00
3:53 AM,66.2,64.4,94,29.95,10.0,Calm,Calm,-,N/A,,Overcast,0,2012-03-30 08:53:00
3:55 AM,65.7,63.9,94,29.95,10.0,Calm,Calm,-,N/A,,Overcast,0,2012-03-30 08:55:00
4:15 AM,66.2,64.4,94,29.96,10.0,Calm,Calm,-,N/A,,Overcast,0,2012-03-30 09:15:00
4:20 AM,66.2,64.4,94,29.96,10.0,Calm,Calm,-,N/A,,Overcast,0,2012-03-30 09:20:00
4:25 AM,66.2,64.4,94,29.96,10.0,Calm,Calm,-,N/A,,Mostly Cloudy,0,2012-03-30 09:25:00
4:27 AM,66.2,64.4,94,29.96,10.0,Calm,Calm,-,N/A,,Mostly Cloudy,0,2012-03-30 09:27:00
4:29 AM,66.2,64.4,94,29.96,10.0,Calm,Calm,-,N/A,,Mostly Cloudy,0,2012-03-30 09:29:00
4:39 AM,66.2,64.4,94,29.97,10.0,Calm,Calm,-,N/A,,Overcast,0,2012-03-30 09:39:00
4:55 AM,66.2,65.3,97,29.97,10.0,Calm,Calm,-,N/A,,Overcast,0,2012-03-30 09:55:00
5:00 AM,66.2,66.2,100,29.97,9.0,Calm,Calm,-,N/A,,Overcast,0,2012-03-30 10:00:00
5:55 AM,66.6,66.0,98,29.98,5.0,South,4.6,-,N/A,,Overcast,170,2012-03-30 10:55:00
6:10 AM,66.2,66.2,100,29.98,2.5,SSE,4.6,-,N/A,,Overcast,160,2012-03-30 11:10:00
6:14 AM,66.2,66.2,100,29.98,1.8,South,4.6,-,N/A,,Overcast,180,2012-03-30 11:14:00
6:16 AM,66.2,66.2,100,29.98,1.8,South,4.6,-,N/A,,Overcast,190,2012-03-30 11:16:00
6:23 AM,66.2,66.2,100,29.98,2.0,South,5.8,-,N/A,,Overcast,170,2012-03-30 11:23:00
6:29 AM,66.2,66.2,100,29.99,1.8,South,4.6,-,N/A,,Overcast,180,2012-03-30 11:29:00
6:35 AM,66.2,66.2,100,29.99,1.2,South,3.5,-,N/A,,Overcast,190,2012-03-30 11:35:00
6:41 AM,66.2,66.2,100,29.99,1.0,South,4.6,-,N/A,,Mist,190,2012-03-30 11:41:00
6:44 AM,66.2,66.2,100,29.99,0.8,South,3.5,-,N/A,,Mist,170,2012-03-30 11:44:00
6:49 AM,66.2,66.2,100,29.99,0.5,South,4.6,-,N/A,Fog,Fog,170,2012-03-30 11:49:00
6:55 AM,66.6,66.2,99,30.00,0.8,South,3.5,-,N/A,,Mist,190,2012-03-30 11:55:00
7:07 AM,66.2,66.2,100,30.00,1.0,South,4.6,-,N/A,,Mist,190,2012-03-30 12:07:00
7:14 AM,66.2,66.2,100,30.01,1.2,South,4.6,-,N/A,,Overcast,190,2012-03-30 12:14:00
7:17 AM,66.2,66.2,100,30.01,1.5,South,4.6,-,N/A,,Overcast,190,2012-03-30 12:17:00
7:21 AM,66.2,66.2,100,30.01,2.0,South,5.8,-,N/A,,Overcast,190,2012-03-30 12:21:00
7:32 AM,66.2,66.2,100,30.01,1.8,South,4.6,-,N/A,,Overcast,170,2012-03-30 12:32:00
7:34 AM,66.2,66.2,100,30.01,1.8,South,5.8,-,N/A,,Overcast,170,2012-03-30 12:34:00
7:44 AM,66.2,66.2,100,30.02,2.0,South,3.5,-,N/A,,Overcast,180,2012-03-30 12:44:00
7:49 AM,68.0,66.2,94,30.02,3.0,South,4.6,-,N/A,,Overcast,180,2012-03-30 12:49:00
7:55 AM,67.1,66.9,99,30.02,4.0,South,4.6,-,N/A,,Overcast,180,2012-03-30 12:55:00
8:41 AM,68.0,66.2,94,30.02,10.0,South,3.5,-,N/A,,Overcast,190,2012-03-30 13:41:00
8:51 AM,68.0,66.2,94,30.02,10.0,Calm,Calm,-,N/A,,Overcast,0,2012-03-30 13:51:00
8:55 AM,68.5,66.7,94,30.02,10.0,South,3.5,-,N/A,,Overcast,170,2012-03-30 13:55:00
9:07 AM,69.8,66.2,88,30.03,10.0,SSE,5.8,-,N/A,,Overcast,150,2012-03-30 14:07:00
9:26 AM,69.8,68.0,94,30.02,10.0,SSE,6.9,-,N/A,,Overcast,150,2012-03-30 14:26:00
9:37 AM,69.8,66.2,88,30.02,10.0,SE,4.6,-,N/A,,Overcast,140,2012-03-30 14:37:00
9:53 AM,71.6,68.0,88,30.01,10.0,South,5.8,-,N/A,,Mostly Cloudy,170,2012-03-30 14:53:00
9:55 AM,71.4,67.3,87,30.01,10.0,Variable,4.6,-,N/A,,Mostly Cloudy,0,2012-03-30 14:55:00
10:03 AM,71.6,68.0,88,30.02,10.0,South,8.1,-,N/A,,Mostly Cloudy,170,2012-03-30 15:03:00
10:07 AM,71.6,68.0,88,30.02,10.0,SSE,6.9,-,N/A,,Mostly Cloudy,160,2012-03-30 15:07:00
10:27 AM,73.4,68.0,83,30.01,10.0,South,8.1,-,N/A,,Scattered Clouds,180,2012-03-30 15:27:00
10:55 AM,73.9,66.9,79,30.00,10.0,SSE,6.9,-,N/A,,Partly Cloudy,160,2012-03-30 15:55:00
11:55 AM,77.4,66.0,68,29.97,10.0,SSE,12.7,18.4,N/A,,Partly Cloudy,160,2012-03-30 16:55:00
12:55 PM,77.0,64.8,66,29.94,10.0,SSE,6.9,-,N/A,,Clear,150,2012-03-30 17:55:00
12:58 PM,77.0,64.4,65,29.93,10.0,SE,5.8,-,N/A,Rain,Light Rain,140,2012-03-30 17:58:00
1:09 PM,75.2,66.2,73,29.93,10.0,SSE,5.8,-,N/A,Rain-Thunderstorm,Light Thunderstorms and Rain,150,2012-03-30 18:09:00
1:20 PM,75.2,66.2,73,29.94,2.5,South,8.1,-,N/A,Rain-Thunderstorm,Heavy Thunderstorms and Rain,180,2012-03-30 18:20:00
1:21 PM,75.2,66.2,73,29.94,1.8,South,8.1,-,N/A,Rain-Thunderstorm,Heavy Thunderstorms and Rain,190,2012-03-30 18:21:00
1:22 PM,73.4,68.0,83,29.95,1.2,SSW,9.2,-,N/A,Rain-Thunderstorm,Heavy Thunderstorms and Rain,200,2012-03-30 18:22:00
1:23 PM,73.4,68.0,83,29.96,0.8,SSW,10.4,-,N/A,Rain-Thunderstorm,Heavy Thunderstorms and Rain,210,2012-03-30 18:23:00
1:24 PM,73.4,66.2,78,29.96,0.5,SSW,12.7,-,N/A,Rain-Thunderstorm,Heavy Thunderstorms and Rain,210,2012-03-30 18:24:00
1:26 PM,71.6,62.6,73,29.95,0.5,South,23.0,34.5,N/A,Rain-Thunderstorm,Heavy Thunderstorms and Rain,180,2012-03-30 18:26:00
1:27 PM,71.6,60.8,69,29.95,0.2,South,15.0,34.5,N/A,Rain-Thunderstorm,Heavy Thunderstorms and Rain,180,2012-03-30 18:27:00
1:31 PM,69.8,60.8,73,29.96,0.2,SSE,9.2,34.5,N/A,Rain-Thunderstorm,Heavy Thunderstorms and Rain,150,2012-03-30 18:31:00
1:40 PM,66.2,60.8,83,29.97,0.2,East,4.6,25.3,N/A,Rain-Thunderstorm,Heavy Thunderstorms and Rain,90,2012-03-30 18:40:00
1:49 PM,64.4,60.8,88,29.92,0.2,ESE,13.8,19.6,N/A,Fog-Rain-Thunderstorm,Heavy Thunderstorms and Rain,120,2012-03-30 18:49:00
1:53 PM,64.4,60.8,88,29.94,0.2,North,8.1,19.6,N/A,Rain-Thunderstorm,Thunderstorms and Rain,350,2012-03-30 18:53:00
1:54 PM,64.4,60.8,88,29.94,0.5,North,9.2,19.6,N/A,Fog-Rain-Thunderstorm,Thunderstorms and Rain,360,2012-03-30 18:54:00
1:55 PM,64.2,60.4,87,29.94,0.5,NNE,8.1,19.6,1.38,Fog-Rain-Thunderstorm,Thunderstorms and Rain,20,2012-03-30 18:55:00
1:57 PM,64.4,60.8,88,29.94,1.0,North,4.6,19.6,N/A,Rain-Thunderstorm,Heavy Thunderstorms and Rain,10,2012-03-30 18:57:00
1:58 PM,64.4,60.8,88,29.94,1.2,Variable,4.6,-,N/A,Rain-Thunderstorm,Heavy Thunderstorms and Rain,0,2012-03-30 18:58:00
1:59 PM,64.4,60.8,88,29.94,1.5,Variable,4.6,-,N/A,Rain-Thunderstorm,Heavy Thunderstorms and Rain,0,2012-03-30 18:59:00
2:02 PM,64.4,60.8,88,29.94,2.0,NW,10.4,-,N/A,Rain-Thunderstorm,Heavy Thunderstorms and Rain,320,2012-03-30 19:02:00
2:11 PM,64.4,60.8,88,29.93,1.8,North,11.5,-,N/A,Rain-Thunderstorm,Heavy Thunderstorms and Rain,350,2012-03-30 19:11:00
2:20 PM,62.6,60.8,94,29.93,2.0,Variable,4.6,-,N/A,Rain-Thunderstorm,Light Thunderstorms and Rain,0,2012-03-30 19:20:00
2:22 PM,64.4,60.8,88,29.92,4.0,North,3.5,-,N/A,Rain-Thunderstorm,Light Thunderstorms and Rain,350,2012-03-30 19:22:00
2:38 PM,64.4,62.6,94,29.93,2.5,ESE,3.5,-,N/A,Rain-Thunderstorm,Light Thunderstorms and Rain,110,2012-03-30 19:38:00
4:45 PM,69.8,66.2,88,29.91,10.0,South,16.1,-,N/A,,Partly Cloudy,180,2012-03-30 21:45:00
4:55 PM,69.6,66.6,90,29.91,10.0,South,15.0,26.5,0.01,,Scattered Clouds,190,2012-03-30 21:55:00
5:55 PM,68.9,64.9,87,29.91,10.0,South,8.1,-,N/A,,Clear,180,2012-03-30 22:55:00
6:10 PM,68.0,64.4,88,29.92,10.0,SSW,6.9,-,N/A,Rain,Light Rain,200,2012-03-30 23:10:00
6:32 PM,68.0,64.4,88,29.94,10.0,SSW,3.5,-,N/A,,Mostly Cloudy,210,2012-03-30 23:32:00
6:39 PM,68.0,64.4,88,29.94,10.0,Calm,Calm,-,N/A,,Mostly Cloudy,0,2012-03-30 23:39:00
6:55 PM,67.6,65.3,92,29.95,10.0,Calm,Calm,-,0.01,,Mostly Cloudy,0,2012-03-30 23:55:00
7:04 PM,68.0,66.2,94,29.95,10.0,Calm,Calm,-,N/A,Thunderstorm,Thunderstorm,0,2012-03-31 00:04:00
7:27 PM,66.2,66.2,100,29.94,10.0,West,3.5,-,N/A,,Mostly Cloudy,280,2012-03-31 00:27:00
7:35 PM,66.2,66.2,100,29.94,10.0,Calm,Calm,-,N/A,,Mostly Cloudy,0,2012-03-31 00:35:00
7:55 PM,66.4,65.3,96,29.94,10.0,South,3.5,-,N/A,,Partly Cloudy,190,2012-03-31 00:55:00
8:46 PM,66.2,66.2,100,29.94,10.0,SE,4.6,-,N/A,,Light Drizzle,140,2012-03-31 01:46:00
8:55 PM,66.7,65.8,97,29.94,10.0,SSE,4.6,-,0.00,,Light Drizzle,160,2012-03-31 01:55:00
9:06 PM,66.2,66.2,100,29.94,10.0,SSE,4.6,-,N/A,,Scattered Clouds,160,2012-03-31 02:06:00
9:55 PM,67.1,66.2,97,29.93,10.0,Calm,Calm,-,0.00,,Scattered Clouds,0,2012-03-31 02:55:00
10:01 PM,66.2,66.2,100,29.93,10.0,South,4.6,-,N/A,,Mostly Cloudy,170,2012-03-31 03:01:00
10:12 PM,66.2,66.2,100,29.93,10.0,South,4.6,-,N/A,,Mostly Cloudy,180,2012-03-31 03:12:00
10:20 PM,68.0,66.2,94,29.94,10.0,South,4.6,-,N/A,,Overcast,190,2012-03-31 03:20:00
10:25 PM,68.0,66.2,94,29.93,9.0,South,5.8,-,N/A,,Overcast,180,2012-03-31 03:25:00
10:55 PM,67.1,66.6,98,29.93,5.0,South,5.8,-,N/A,,Overcast,180,2012-03-31 03:55:00
11:02 PM,68.0,66.2,94,29.93,5.0,South,4.6,-,N/A,,Overcast,190,2012-03-31 04:02:00
11:04 PM,68.0,66.2,94,29.93,6.0,South,4.6,-,N/A,,Overcast,190,2012-03-31 04:04:00
11:16 PM,68.0,68.0,100,29.93,7.0,South,6.9,-,N/A,,Overcast,180,2012-03-31 04:16:00
11:22 PM,68.0,68.0,100,29.93,7.0,South,5.8,-,N/A,,Overcast,180,2012-03-31 04:22:00
11:25 PM,68.0,68.0,100,29.93,7.0,South,6.9,-,N/A,,Overcast,180,2012-03-31 04:25:00
11:26 PM,68.0,68.0,100,29.93,7.0,South,5.8,-,N/A,,Overcast,180,2012-03-31 04:26:00
11:27 PM,68.0,68.0,100,29.93,7.0,South,5.8,-,N/A,,Overcast,180,2012-03-31 04:27:00
11:28 PM,68.0,66.2,94,29.93,7.0,South,5.8,-,N/A,,Overcast,180,2012-03-31 04:28:00
11:39 PM,68.0,66.2,94,29.93,7.0,South,5.8,-,N/A,,Overcast,180,2012-03-31 04:39:00
11:47 PM,68.0,66.2,94,29.93,7.0,South,5.8,-,N/A,,Mostly Cloudy,180,2012-03-31 04:47:00
11:55 PM,67.1,66.7,99,29.93,6.0,South,4.6,-,N/A,,Mostly Cloudy,170,2012-03-31 04:55:00